Location: Unspecified
(41.5000°N, 0.0000°E)
Time: 21:30:53
(UTC+00:00)

Courier 1B Rocket - Pass Details

Date: 29 June 2019
Orbit: 920 x 1202 km, 28.2° (Epoch: 19 July)

Event Time Altitude Azimuth Distance (km) Brightness Sun altitude
Rises 04:08:56 0° 253° (WSW) 3,972 - -3.9°
Exits shadow 04:09:56 - 250° (WSW) 3,661 7.4 -3.8°
Reaches altitude 10° 04:12:17 10° 241° (WSW) 2,966 6.9 -3.4°
Maximum altitude 04:18:03 26° 188° (S) 1,955 6.3 -2.5°
Drops below altitude 10° 04:23:31 10° 135° (SE) 2,794 7.6 -1.7°
Sets 04:26:34 0° 123° (ESE) 3,698 8.4 -1.2°
